THOR ABLESTAR DEB, 403

Orbit data source: Space-Track

THOR ABLESTAR DEB, 403 is space debris in LEO originally from a launch on Thu, 29 Jun 1961 UTC launched from the Air Force Eastern Test Range (AFETR). Debris objects in space refer to the collection of defunct objects orbiting the Earth. Examples of debris include non-operational satellites, rocket bodies, and fragments generated from explosions, collisions, or faulty payload assembly.

Loading next visibility...
Identifier
403, 1961-015EC
Orbit
LEO
Country
Flag of USUS
Related business
Manufacturer
Unknown
Mission
Spacecraft
Bus & Motor
Unknown
Mass
Unknown
Launch date (UTC)
1961-06-29 (64 years ago)
Launch vehicle
Unknown
Launch site
Air Force Eastern Test Range (AFETR)
Object type
Payload
Rocket body
Debris
Shape & HBR
Unknown shape, 0.2 m
Radar Cross Section
Small (<0.1 m²)

Expand to show TLE details & history
Last TLE update: 13 hours ago

TLE from 13 hours ago
0 THOR ABLESTAR DEB
1 00403U 61015EC  25310.84412883  .00000039  00000-0  10690-3 0  9990
2 00403  66.8397  99.4746 0024790 318.8026 190.4291 13.81186955240444
Epoch: 2025-11-06T20:15Z
TLE epoch observation values (Epoch: 2025-11-06T20:15:32.730Z)
Latitude
28.15924°
Longitude
-83.87558°
Altitude
980.202 km
Speed
7.355 km/s
True Right ascension
17h 45m 13s
True Declination
28° 01' 15"
Sunlit
Object was in daylight at epoch
Visualization orbit readout
Latitude
Unknown
Longitude
Unknown
Altitude
Unknown
Speed
Unknown
Apparent Right ascension
Unknown
Apparent Declination
Unknown
Sunlit
N/A
Visualization observer readout
Local Sidereal Time
05:18:29
Azimuth
Unknown
Elevation
Unknown
Doppler factor
Unknown
Orbital elements
Apogee altitude
976.263 km
Perigee altitude
939.89 km
Semi-major axis
7,336.213 km
Eccentricity
0.00248
Inclination
66.8397°
RAAN
99.4746°
Arg. of periapsis
318.8026°
True anomaly
190.37783°
Mean anomaly
190.4291°
Eccentric anomaly
190.40345°
Mean motion
3.4541 °/min
Orbital period
104.22 mins
BSTAR
0.0001069
Loading maneuver chart data...
Computing Atmospheric mass density...

Documentation

Showing up to 5 results
|